Location: Newark
(46.7458°N, 0.9467°W)
Time: 01:38:18
(UTC+00:00)

Envisat - Visible Passes

Search period start: 20 September 2019 00:00
Search period end: 30 September 2019 00:00
Orbit: 764 x 766 km, 98.1° (Epoch: 19 September)

Date Brightness Start Highest point End Pass type
(mag) Time Alt. Az. Time Alt. Az. Time Alt. Az.
20 Sep 5.8 19:26:29 10° SW 19:30:03 19° W 19:33:39 10° NW visible
21 Sep 4.6 18:48:15 10° SSW 18:52:59 39° W 18:57:45 10° NNW visible
22 Sep 6.3 19:54:34 10° W 19:55:55 11° W 19:57:17 10° WNW visible
23 Sep 5.5 19:14:39 10° SW 19:18:41 24° W 19:22:46 10° NW visible
24 Sep 4.1 18:36:46 10° S 18:41:39 49° W 18:46:36 10° NNW visible
25 Sep 6.0 19:41:53 10° WSW 19:44:30 14° W 19:47:08 10° NW visible
26 Sep 5.1 19:02:56 10° SSW 19:07:20 29° W 19:11:45 10° NW visible
27 Sep 3.7 18:25:21 10° S 18:30:22 61° W 18:35:25 10° NNW visible
28 Sep 5.9 19:29:44 10° SW 19:33:06 18° W 19:36:29 10° NW visible
29 Sep 4.7 18:51:21 10° SSW 18:56:00 36° W 19:00:41 10° NNW visible
